Theta_e
342 342 339 338 344 343 352 354 350 351 349 346 347 349 348 347 349 349 340 340 340 340 340 340 340 340 337 339 340 339 339 339 339 339 338 338 338 338 337 338 339 340 339 338 338 339 339 341 341
340 342 338 338 346 349 349 345 352 349 346 345 345 346 346 347 341 343 340 340 339 340 340 340 338 339 339 338 335 335 335 336 335 334 335 335 332 333 333 334 335 336 336 337 336 337 337 338 339
341 340 336 342 348 348 348 347 348 345 345 346 345 344 345 345 340 340 340 340 339 340 339 340 339 337 337 334 327 328 330 330 330 330 330 329 326 325 320 320 321 323 324 325 329 331 331 334 336
340 335 335 344 349 347 347 347 345 347 345 343 344 347 343 343 340 340 340 339 337 338 338 340 334 332 331 325 322 324 325 326 327 329 328 326 324 323 320 320 321 323 323 323 323 324 325 326 329
337 334 342 346 347 347 345 345 344 347 345 345 343 346 344 342 342 339 337 337 337 337 338 335 329 328 327 325 324 321 319 320 324 324 324 323 321 321 319 319 319 323 324 324 323 322 323 323 323
335 335 344 347 348 345 345 343 345 346 345 342 343 343 341 341 339 337 337 337 336 336 331 332 333 327 322 320 320 320 319 318 316 316 315 318 319 320 321 320 321 323 324 324 325 325 325 325 325
338 336 342 347 347 344 344 342 342 344 343 345 341 343 340 340 339 337 337 337 336 330 326 328 327 325 323 322 321 321 321 320 320 320 320 321 321 322 322 324 324 324 325 325 325 325 326 326 326
335 337 347 345 348 345 343 344 343 346 345 340 339 342 342 338 339 338 337 336 332 326 326 325 324 323 325 324 321 321 321 321 320 320 321 319 319 318 319 320 323 324 325 325 324 323 323 324 325
334 338 343 343 343 342 342 347 345 341 341 342 340 339 337 339 339 338 335 333 328 326 326 325 319 319 321 322 320 319 324 323 321 320 318 318 317 318 319 318 318 319 321 318 320 317 317 318 318
336 338 341 339 338 339 344 347 346 345 344 342 338 339 339 339 339 334 331 329 326 325 326 320 318 318 319 318 317 318 319 322 322 320 318 318 318 317 317 317 317 317 317 317 317 316 316 316 317
336 337 340 339 339 337 342 344 344 345 346 341 339 340 339 338 335 332 331 328 326 325 325 319 318 318 318 317 317 318 319 321 321 321 320 319 318 318 316 314 315 317 317 317 316 316 315 316 317
340 338 338 339 340 338 343 342 345 345 342 338 335 338 330 329 328 330 330 327 326 326 320 319 318 318 317 316 316 317 318 318 317 319 320 319 319 318 316 316 314 316 317 317 315 315 315 316 317
341 340 337 337 339 340 344 346 345 341 330 327 331 332 327 324 326 328 330 325 323 320 320 320 318 318 318 319 318 318 318 318 317 318 318 319 319 318 317 317 316 315 317 317 316 314 314 317 317
335 338 337 335 342 345 346 345 344 339 328 327 330 329 326 324 325 324 322 321 321 321 320 321 319 319 321 321 321 320 319 319 318 319 320 317 318 319 318 317 317 315 315 316 316 315 315 315 316
335 340 335 336 340 346 344 348 348 337 330 328 327 326 325 324 324 324 322 321 322 321 320 321 320 322 322 323 322 323 322 320 320 321 321 321 319 319 318 317 317 316 316 314 314 315 315 315 315
335 335 338 334 337 344 343 347 346 335 332 330 327 326 325 324 324 324 323 321 321 321 321 321 322 323 324 323 325 327 324 323 322 322 323 319 320 319 318 318 317 316 317 315 315 315 316 314 315
332 334 339 340 337 346 344 347 346 338 336 334 330 327 326 324 325 325 326 325 324 322 322 321 321 321 323 324 325 326 325 323 324 324 323 318 317 320 319 318 317 317 316 316 315 315 315 314 315
329 339 337 340 338 345 345 345 346 341 339 337 332 330 329 327 326 327 327 326 326 326 326 323 319 319 320 320 321 324 326 326 325 324 323 320 318 318 319 318 318 317 316 317 316 315 315 314 315
326 334 336 336 338 338 341 345 348 343 340 339 336 333 331 330 329 329 329 329 328 328 325 324 325 327 323 319 322 324 326 326 326 324 323 321 321 320 319 318 317 317 316 317 317 316 315 314 315
334 336 337 336 337 336 343 348 346 345 343 340 337 335 333 332 330 330 331 330 329 328 326 328 328 327 325 325 325 325 326 326 326 324 324 322 320 322 320 318 318 318 317 317 317 316 315 314 315
333 335 334 335 345 344 345 345 348 345 343 340 338 336 334 332 332 330 330 331 330 329 328 328 328 328 328 327 327 326 325 324 324 323 323 321 319 319 321 319 318 318 318 318 318 317 315 314 315
333 331 334 342 339 340 339 344 343 342 344 341 339 337 335 333 332 330 330 330 331 330 329 329 330 328 326 325 324 325 324 323 322 322 320 319 318 318 320 319 318 318 318 318 318 318 316 315 315
330 329 331 334 334 336 343 342 338 338 340 338 337 335 331 333 331 330 329 330 330 329 330 329 326 324 323 322 323 321 319 319 320 319 317 314 313 312 315 319 318 318 318 318 317 317 316 315 316
331 332 325 319 321 325 331 341 337 337 339 335 332 328 330 328 327 327 328 329 330 329 325 323 323 320 318 317 317 317 316 316 319 317 314 314 313 311 312 316 318 317 317 317 317 316 316 315 315
328 327 333 334 331 331 334 337 338 333 332 334 328 328 326 325 326 325 324 325 327 325 325 322 320 317 316 316 316 315 316 319 318 313 314 314 312 312 312 314 317 317 316 316 316 315 314 315 315
330 330 336 338 333 331 336 342 336 332 331 329 324 326 322 324 323 322 324 325 326 325 322 320 319 317 316 316 314 316 318 317 314 312 313 312 312 313 313 313 314 317 316 316 314 315 314 315 315
331 328 326 324 321 323 327 332 331 332 334 329 324 322 322 322 320 318 321 325 325 323 317 317 318 316 316 316 315 316 316 314 312 312 314 313 312 313 313 313 314 314 316 315 314 315 315 315 314
330 324 329 325 331 330 328 338 336 334 334 331 326 321 320 318 317 317 318 320 320 317 315 317 319 318 316 313 316 314 313 313 311 311 314 312 312 312 312 313 314 314 314 316 315 315 315 315 314
325 324 321 320 324 327 330 330 328 330 330 331 326 320 319 316 316 314 314 317 314 313 312 313 312 312 313 315 313 312 311 311 311 312 312 311 310 310 312 313 313 315 314 316 315 315 315 315 315
324 324 322 325 327 323 323 325 323 324 323 325 322 319 318 314 311 310 308 308 309 310 311 311 312 312 311 311 312 312 312 311 311 312 310 308 308 310 312 313 314 315 316 315 314 314 315 315 313
Wind_Speed
6 3 2 2 4 5 2 2 2 1 1 1 2 4 6 4 1 1 6 7 14 12 10 10 11 8 8 9 10 10 10 11 10 9 9 10 10 10 10 9 9 9 7 6 4 4 6 6 6
8 2 2 2 4 4 1 2 3 1 5 7 6 4 3 3 3 7 13 11 14 13 12 10 7 8 9 8 8 9 9 9 9 8 9 8 8 9 9 8 8 9 9 8 8 6 5 6 6
2 3 3 4 3 3 3 3 2 4 5 2 3 5 3 3 3 10 5 15 15 13 10 10 9 9 9 8 8 7 6 6 6 7 8 8 8 7 7 8 8 9 10 9 8 8 7 7 6
2 5 4 4 4 1 1 4 4 6 4 5 3 5 3 3 6 6 17 17 14 12 10 9 8 8 8 8 7 5 4 3 4 5 6 6 7 6 8 9 9 11 12 11 9 8 8 8 8
4 3 5 4 3 3 1 5 6 4 3 3 1 3 3 3 4 13 17 15 14 13 11 9 7 7 7 7 6 6 6 5 4 4 5 5 5 6 6 7 8 10 12 12 11 9 8 9 9
3 3 5 2 3 1 3 5 4 2 2 2 4 3 1 3 13 19 15 15 12 11 10 9 6 5 5 5 6 7 7 7 6 6 5 5 5 5 6 7 8 9 11 13 11 10 10 10 9
5 4 4 3 1 3 4 6 4 4 4 2 6 3 1 6 13 16 15 13 11 10 9 7 5 4 3 2 4 5 6 6 6 6 6 7 6 5 7 5 9 11 10 12 13 12 11 10 9
4 4 2 1 1 2 5 3 6 2 2 5 4 4 4 7 18 17 12 12 11 10 7 5 2 2 2 1 3 4 3 4 4 5 4 4 7 6 5 4 7 9 5 10 10 9 11 9 7
3 4 2 3 4 2 5 4 2 2 5 2 1 5 3 23 21 16 13 11 11 10 7 3 1 2 3 2 3 5 3 2 4 5 4 5 7 6 4 4 6 5 5 4 5 9 10 8 8
4 3 7 4 4 4 6 4 6 3 3 0 3 5 20 24 22 18 16 14 13 12 6 5 2 2 4 2 3 5 5 4 5 6 5 5 5 7 8 9 6 7 6 3 4 8 12 10 10
2 4 4 5 6 8 7 4 3 6 3 5 6 8 16 18 16 16 16 17 16 14 10 9 6 3 1 2 4 2 1 3 7 8 8 7 7 7 9 11 8 7 5 2 4 7 9 11 12
2 4 4 4 2 7 9 8 4 1 3 3 11 16 12 12 14 19 19 16 14 16 15 13 10 7 4 1 3 4 4 4 4 5 10 11 10 9 8 11 10 7 7 6 6 9 10 11 7
2 3 5 6 1 7 8 4 5 2 2 9 14 10 9 10 14 19 20 17 18 19 18 15 11 7 4 2 3 5 6 6 6 6 9 10 12 12 9 10 11 8 7 6 8 10 11 7 8
3 1 2 5 6 4 5 4 3 4 6 8 10 11 10 14 21 15 18 21 23 22 20 15 14 12 10 5 4 5 7 8 8 9 12 11 14 14 12 11 12 10 10 10 11 10 9 11 9
1 2 5 1 3 3 7 2 5 6 8 10 8 8 9 14 19 23 27 25 25 26 21 19 17 13 11 9 9 9 9 10 11 12 13 15 15 15 15 16 14 13 11 11 11 12 12 11 12
4 4 2 2 8 4 4 7 3 12 12 11 9 9 9 8 19 23 24 23 22 22 21 20 16 13 13 14 13 15 15 15 16 16 17 17 18 17 18 19 17 16 15 13 13 13 11 12 14
4 3 4 7 6 5 5 6 7 10 11 10 10 11 8 7 13 22 23 24 23 23 23 21 18 17 15 17 18 19 19 20 20 20 17 14 15 17 20 21 19 17 17 16 14 13 13 15 15
6 5 5 6 7 7 8 9 7 11 10 9 8 5 7 8 14 23 22 23 22 22 21 19 19 19 19 19 21 21 21 22 23 23 20 16 15 15 18 21 20 18 18 17 15 15 15 15 15
5 6 8 3 5 4 9 6 11 12 8 7 6 6 8 9 12 13 15 17 18 19 20 19 19 20 21 22 24 25 24 25 24 21 22 18 17 17 17 19 20 19 18 18 17 16 15 15 14
5 3 6 3 2 2 3 3 7 11 13 9 6 6 9 5 5 10 14 13 17 18 18 16 17 17 16 19 20 21 22 23 23 23 22 22 18 18 20 21 22 20 18 17 17 16 15 13 12
4 5 5 4 4 2 5 4 6 6 10 7 7 9 7 9 10 7 13 17 15 18 17 14 13 13 14 14 14 15 15 17 20 21 20 19 20 21 22 24 25 24 21 20 18 17 16 15 13
5 7 4 5 4 4 2 4 5 6 9 13 10 9 8 11 8 6 14 15 17 18 14 12 11 10 10 8 10 11 14 17 21 20 20 21 21 22 22 22 24 25 22 21 19 16 18 16 15
9 4 5 4 4 3 1 2 5 1 6 10 11 10 9 11 8 7 10 13 12 12 11 8 7 5 5 7 9 11 15 19 20 19 20 20 21 22 20 22 20 22 22 20 17 16 18 18 15
3 3 6 4 4 1 4 5 6 4 6 4 5 6 6 5 5 5 7 9 10 10 11 9 6 4 7 10 11 13 15 18 19 21 23 23 23 24 24 20 22 23 22 22 19 16 17 18 15
7 5 3 3 2 5 4 3 8 5 7 6 7 7 7 6 6 6 7 8 11 12 11 8 9 12 14 15 14 14 17 17 17 20 23 25 26 27 27 22 19 21 22 17 17 16 16 16 16
6 7 5 6 4 5 3 5 5 5 6 5 6 5 5 5 6 6 10 15 17 14 13 13 15 17 16 15 15 16 18 17 18 20 20 21 22 26 25 23 21 18 15 14 23 21 18 16 17
3 3 4 4 2 2 2 6 6 1 2 3 6 5 6 7 7 7 10 15 18 16 16 17 19 21 15 14 17 16 15 16 20 22 23 25 25 24 24 27 26 21 17 21 26 21 17 15 17
2 4 2 3 2 4 3 4 5 5 8 7 7 8 8 6 5 5 9 14 16 15 17 18 18 14 12 14 12 13 17 17 21 25 23 25 25 25 28 26 26 25 22 22 20 18 16 14 16
3 2 6 4 3 2 2 6 6 9 10 10 9 9 8 6 5 6 8 13 11 11 13 12 11 9 10 9 11 13 17 21 21 20 21 21 24 27 28 27 27 23 20 22 16 16 16 16 16
1 1 3 4 4 1 3 6 2 6 7 7 7 8 6 5 6 3 2 4 6 5 4 4 5 6 9 9 11 15 18 21 22 19 18 21 25 28 27 27 25 20 16 14 13 13 14 14 16
Wind_Direction
148 116 104 58 66 66 51 58 344 53 92 23 46 118 123 35 48 150 134 127 143 132 123 121 107 98 83 78 78 80 77 78 75 74 70 67 68 64 63 59 53 45 44 43 42 20 354 8 16
122 45 61 76 75 74 260 280 247 211 136 118 86 107 56 93 100 116 139 141 150 139 135 124 118 107 97 96 86 79 77 78 79 73 71 63 60 54 52 52 50 46 35 26 18 16 356 354 350
128 22 72 85 106 106 136 209 114 118 162 50 94 40 68 92 81 145 186 159 156 149 139 123 117 113 109 95 81 78 76 76 74 74 69 58 48 46 37 34 28 24 21 8 -0 357 356 346 336
324 15 30 69 47 0 59 156 132 127 89 65 105 69 74 6 158 170 150 154 153 149 138 131 122 113 102 86 77 71 62 55 51 54 54 48 41 38 40 39 36 23 18 6 351 341 335 331 324
37 56 59 65 346 290 113 133 148 155 111 115 139 146 89 34 155 151 148 153 153 147 141 133 119 107 102 85 71 65 50 45 34 26 25 21 20 28 40 32 19 14 10 8 7 360 343 329 318
36 88 55 70 330 339 67 135 135 71 91 132 81 90 67 132 147 151 151 150 152 146 138 127 115 113 106 83 70 66 68 60 57 39 34 26 10 3 5 4 354 350 349 353 353 354 354 348 341
111 80 158 147 197 140 155 140 150 150 132 137 136 89 32 151 155 153 152 153 156 151 146 142 144 136 132 77 52 51 61 60 62 47 37 27 17 359 345 332 341 330 325 338 337 339 337 332 340
101 87 79 348 163 202 148 98 129 115 85 112 144 178 197 180 162 156 159 163 160 153 148 140 169 223 220 251 10 353 3 31 28 26 31 9 3 345 342 353 359 347 335 336 348 359 8 355 346
105 68 142 186 167 198 162 128 39 37 129 66 62 143 174 157 159 155 157 164 168 167 168 188 246 256 224 258 304 318 274 294 331 339 359 4 15 23 13 338 322 330 325 341 5 354 355 351 339
85 104 203 195 183 197 172 130 139 139 153 160 47 51 133 148 162 164 171 175 182 181 187 188 182 181 189 265 314 319 258 257 285 292 310 326 340 347 342 322 319 320 311 309 319 337 343 324 326
182 162 203 239 211 171 151 114 120 132 249 209 186 140 139 147 165 177 185 189 192 195 199 199 205 183 180 329 305 352 45 262 283 279 282 300 300 322 344 345 313 310 339 323 323 334 336 333 331
133 188 193 250 105 146 148 134 115 242 305 190 140 148 140 153 174 190 198 200 208 196 196 200 203 203 198 352 336 329 307 286 331 299 278 288 286 303 327 341 340 316 316 312 342 340 337 332 334
256 179 193 299 339 98 99 103 146 90 92 103 125 136 144 157 182 200 205 199 190 192 197 196 195 192 209 251 323 323 313 295 301 314 321 278 277 287 301 323 331 307 302 297 307 330 333 326 333
317 344 40 14 76 69 112 161 135 186 161 130 147 154 170 173 187 181 193 195 199 202 203 200 202 206 224 245 283 318 314 299 292 302 312 287 279 275 281 295 308 298 305 296 308 317 324 312 313
61 21 337 188 137 129 124 274 224 151 167 160 170 176 178 185 184 192 197 202 206 208 206 213 218 231 250 268 281 292 297 287 286 292 295 291 278 273 272 278 286 294 288 304 298 305 307 310 310
82 64 355 252 157 172 133 259 201 174 167 183 173 191 185 190 197 204 206 210 209 212 213 221 230 246 254 268 283 285 280 282 284 288 290 296 283 271 267 271 284 291 283 289 303 301 301 309 314
5 230 205 319 177 139 171 260 185 184 186 192 189 196 191 204 219 215 216 221 226 228 230 237 243 248 258 270 283 290 281 281 284 291 293 291 298 274 268 269 274 282 285 283 288 292 298 307 307
207 223 225 214 200 180 197 250 171 193 199 217 212 183 197 206 229 222 224 228 233 241 245 248 254 260 261 273 286 286 286 290 292 291 290 293 290 288 276 267 264 272 275 280 283 283 294 303 305
205 205 220 197 190 138 213 229 190 199 212 223 233 203 220 219 241 234 237 236 240 241 240 244 258 267 268 276 290 295 292 300 307 306 298 289 288 284 275 262 260 270 269 274 277 276 285 290 298
202 221 241 214 63 162 108 298 219 209 222 222 228 237 238 242 250 251 247 239 238 241 243 250 259 274 280 282 285 287 292 299 303 305 301 297 292 284 271 261 261 267 267 270 273 267 270 276 288
231 200 235 219 113 119 135 279 211 213 216 225 244 230 231 223 233 229 235 234 237 242 240 249 263 272 279 284 286 294 300 304 302 311 309 296 301 293 283 268 260 263 262 267 274 265 260 265 276
253 210 219 133 118 238 13 267 243 209 207 222 228 233 222 223 229 214 220 226 228 236 240 245 249 259 279 294 303 307 305 302 311 314 316 313 312 308 293 282 266 258 257 263 265 261 263 256 256
233 205 207 141 131 92 241 87 262 37 248 229 223 227 232 228 206 233 223 228 225 221 223 224 222 238 263 293 300 303 305 306 310 310 313 316 320 317 310 284 266 263 263 259 252 249 254 253 250
90 70 46 61 101 200 204 155 280 206 222 214 214 224 229 204 185 157 150 156 169 179 183 194 206 245 264 266 268 276 287 297 303 307 310 317 318 320 319 308 274 263 257 247 245 247 252 252 253
69 58 315 327 345 239 165 129 246 252 246 240 194 203 201 175 161 147 146 157 172 183 194 209 225 233 237 244 252 266 277 285 291 299 306 313 316 319 320 317 303 278 267 260 263 245 246 249 252
187 160 168 236 233 273 181 235 259 239 270 233 192 177 169 173 179 179 186 191 186 202 210 220 230 239 242 248 259 270 277 278 285 294 300 305 310 316 314 318 314 295 256 253 255 249 252 259 254
193 188 172 129 35 68 252 294 298 279 294 199 177 168 199 206 191 190 203 202 205 200 220 230 235 243 250 263 274 273 277 288 298 301 300 307 309 312 313 310 306 293 264 236 236 240 254 262 253
179 158 14 11 288 289 305 284 248 249 239 217 205 204 210 202 196 214 207 208 218 222 235 242 251 262 266 273 273 284 290 290 299 298 295 306 310 313 313 310 307 293 268 248 240 243 242 254 247
5 8 55 115 133 199 292 264 218 225 218 209 212 203 201 201 217 223 223 226 239 247 256 264 264 271 281 287 290 299 301 299 301 303 302 309 314 316 314 310 312 293 274 256 243 245 249 255 252
8 0 141 120 261 127 159 272 322 286 280 240 195 190 190 204 200 216 265 259 244 253 251 257 282 300 309 311 311 309 310 312 307 306 314 319 317 316 315 313 307 289 272 250 235 242 247 249 263